Location: Leeds
(37.2390°N, 113.3580°W)
Time: 07:53:47
(UTC-06:00)

ISS - All Passes

Search period start: 26 September 2016 00:00
Search period end: 06 October 2016 00:00
Orbit: 401 x 409 km, 51.6° (Epoch: 26 September)

Date Brightness Start Highest point End Pass type
(mag) Time Alt. Az. Time Alt. Az. Time Alt. Az.
26 Sep - 03:41:29 10° NNW 03:44:02 20° NNE 03:46:36 10° E night (unlit)
26 Sep - 05:17:31 10° WNW 05:20:40 45° SW 05:23:49 10° SSE visible
26 Sep - 20:20:55 10° SSE 20:22:50 15° SE 20:24:44 10° E visible
26 Sep - 21:55:52 10° WSW 21:59:01 46° NW 22:02:11 10° NE visible
26 Sep - 23:35:22 10° NNW 23:36:10 11° NNW 23:36:58 10° N night (unlit)
27 Sep - 02:49:54 10° N 02:51:44 14° NNE 02:53:33 10° ENE night (unlit)
27 Sep - 04:25:21 10° NW 04:28:39 84° NE 04:31:56 10° SE night (unlit)
27 Sep - 21:03:40 10° SW 21:06:55 85° SE 21:10:11 10° NE visible
27 Sep - 22:41:50 10° WNW 22:43:47 15° NNW 22:45:45 10° NNE night (unlit)
28 Sep - 01:58:56 10° N 01:59:20 10° NNE 01:59:44 10° NNE night (unlit)
28 Sep - 03:33:23 10° NW 03:36:31 41° NE 03:39:40 10° ESE night (unlit)
28 Sep - 05:10:33 10° W 05:12:47 17° SW 05:15:00 10° S night (unlit)
28 Sep - 20:11:51 10° SSW 20:14:53 38° SE 20:17:57 10° ENE visible
28 Sep - 21:48:51 10° W 21:51:28 22° NNW 21:54:06 10° NNE visible
29 Sep - 02:41:34 10° NNW 02:44:19 24° NNE 02:47:04 10° E night (unlit)
29 Sep - 04:17:49 10° WNW 04:20:50 34° SW 04:23:51 10° SSE night (unlit)
29 Sep - 19:20:34 10° S 19:22:56 19° SE 19:25:19 10° E daylight
29 Sep - 20:56:11 10° WSW 20:59:14 36° NW 21:02:18 10° NE visible
30 Sep - 01:49:52 10° NNW 01:52:00 16° NNE 01:54:07 10° ENE night (unlit)
30 Sep - 03:25:32 10° NW 03:28:49 74° SW 03:32:05 10° SE night (unlit)
30 Sep - 20:03:49 10° SW 20:07:03 73° NW 20:10:19 10° NE visible
30 Sep - 21:42:26 10° NW 21:44:02 13° NNW 21:45:38 10° N visible
01 Oct - 00:58:28 10° N 00:59:35 11° NNE 01:00:43 10° NE night (unlit)
01 Oct - 02:33:27 10° NW 02:36:41 53° NE 02:39:54 10° ESE night (unlit)
01 Oct - 04:11:12 10° W 04:12:50 13° SW 04:14:27 10° SSW night (unlit)
01 Oct - 19:11:49 10° SSW 19:14:58 52° SE 19:18:09 10° ENE daylight
01 Oct - 20:49:15 10° WNW 20:51:39 19° NNW 20:54:03 10° NNE visible
02 Oct - 01:41:32 10° NNW 01:44:28 29° NNE 01:47:22 10° E night (unlit)
02 Oct - 03:18:05 10° WNW 03:20:53 26° SW 03:23:40 10° S night (unlit)
02 Oct - 18:20:15 10° S 18:22:56 24° SE 18:25:39 10° ENE daylight
02 Oct - 19:56:26 10° W 19:59:20 30° NNW 20:02:16 10° NNE visible
03 Oct - 00:49:45 10° NNW 00:52:08 18° NNE 00:54:31 10° ENE night (unlit)
03 Oct - 02:25:37 10° WNW 02:28:51 55° SW 02:32:03 10° SE night (unlit)
03 Oct - 17:29:35 10° SSE 17:30:59 12° SE 17:32:23 10° ESE daylight
03 Oct - 19:03:54 10° WSW 19:07:06 55° NW 19:10:18 10° NE daylight
03 Oct - 20:43:00 10° NW 20:44:10 11° NNW 20:45:21 10° N visible
03 Oct - 23:58:10 10° N 23:59:43 13° NNE 00:01:17 10° NE night (unlit)
04 Oct - 01:33:26 10° NW 01:36:43 69° NE 01:39:58 10° ESE night (unlit)
04 Oct - 18:11:43 10° SW 18:14:56 70° SE 18:18:11 10° NE daylight
04 Oct - 19:49:35 10° WNW 19:51:43 16° NNW 19:53:52 10° NNE visible
05 Oct - 00:41:26 10° NW 00:44:29 35° NE 00:47:32 10° ESE night (unlit)
05 Oct - 02:18:18 10° W 02:20:48 20° SW 02:23:17 10° S night (unlit)
05 Oct - 17:19:55 10° SSW 17:22:51 32° SE 17:25:47 10° ENE daylight
05 Oct - 18:56:36 10° W 18:59:20 25° NNW 19:02:06 10° NNE daylight
05 Oct - 23:49:33 10° NNW 23:52:09 21° NNE 23:54:45 10° E night (unlit)
